• In Hungary
  • List of Countries
  • For 7 days
  • Water Temperature
  • Satellite Maps
  • Weather Map
  • News
  • Weather Widgets
  • user-avatar
    Login

    Hourly Weather Bluszczow

    Today, 20 October, Friday

    Time Temperature Precipitation Wind Pressure Humidity
    00:00 +12°C° 0 mm 1 mps 743 mmHg 88%
    01:00 +11°C° 0 mm 1 mps 743 mmHg 89%
    02:00 +11°C° 0 mm 1 mps 743 mmHg 89%
    03:00 +11°C° 0 mm 1 mps 743 mmHg 89%
    04:00 +11°C° 0 mm 1 mps 743 mmHg 89%
    05:00 +11°C° 0 mm 1 mps 743 mmHg 88%
    06:00 +11°C° 0 mm 1 mps 743 mmHg 88%
    07:00 +11°C° 0 mm 1 mps 743 mmHg 87%
    08:00 +13°C° 0 mm 1 mps 743 mmHg 79%
    09:00 +15°C° 0 mm 1 mps 743 mmHg 70%
    10:00 +18°C° 0 mm 1 mps 743 mmHg 62%
    11:00 +19°C° 0 mm 1 mps 743 mmHg 58%
    12:00 +20°C° 0 mm 1 mps 743 mmHg 53%
    13:00 +21°C° 0 mm 1 mps 743 mmHg 49%
    14:00 +20°C° 0 mm 1 mps 743 mmHg 53%
    15:00 +20°C° 0 mm 1 mps 743 mmHg 57%
    16:00 +19°C° 0 mm 1 mps 743 mmHg 61%
    17:00 +18°C° 0 mm 1 mps 743 mmHg 64%
    18:00 +15°C° 0 mm 2 mps 743 mmHg 68%
    19:00 +14°C° 0 mm 2 mps 743 mmHg 72%
    20:00 +14°C° 0 mm 2 mps 743 mmHg 73%
    21:00 +13°C° 0 mm 2 mps 743 mmHg 74%
    22:00 +13°C° 0 mm 2 mps 743 mmHg 76%
    23:00 +13°C° 0 mm 2 mps 743 mmHg 76%

    Tomorrow, 21 October, Saturday

    Time Temperature Precipitation Wind Pressure Humidity
    00:00 +12°C° 0 mm 2 mps 743 mmHg 77%
    01:00 +12°C° 0 mm 2 mps 743 mmHg 78%
    02:00 +12°C° 0 mm 2 mps 743 mmHg 78%
    03:00 +12°C° 0 mm 2 mps 743 mmHg 78%
    04:00 +12°C° 0 mm 2 mps 743 mmHg 78%
    05:00 +12°C° 0 mm 2 mps 743 mmHg 79%
    06:00 +12°C° 0 mm 2 mps 743 mmHg 80%
    07:00 +12°C° 0 mm 2 mps 743 mmHg 80%
    08:00 +13°C° 0 mm 2 mps 743 mmHg 77%
    09:00 +14°C° 0 mm 2 mps 743 mmHg 73%
    10:00 +16°C° 0 mm 2 mps 743 mmHg 70%
    11:00 +16°C° 0 mm 3 mps 743 mmHg 69%
    12:00 +16°C° 0 mm 3 mps 743 mmHg 68%
    13:00 +17°C° 0 mm 3 mps 742 mmHg 67%
    14:00 +16°C° 0 mm 2 mps 742 mmHg 69%
    15:00 +16°C° 0 mm 2 mps 742 mmHg 71%
    16:00 +16°C° 0 mm 1 mps 742 mmHg 72%
    17:00 +15°C° 0 mm 1 mps 742 mmHg 75%
    18:00 +14°C° 0 mm 1 mps 742 mmHg 77%
    19:00 +13°C° 0 mm 1 mps 742 mmHg 80%
    20:00 +13°C° 0 mm 1 mps 742 mmHg 82%
    21:00 +13°C° 0 mm 1 mps 742 mmHg 83%
    22:00 +12°C° 0 mm 1 mps 742 mmHg 84%
    23:00 +12°C° 0 mm 1 mps 742 mmHg 86%

    Day after tomorrow, 22 October, Sunday

    Time Temperature Precipitation Wind Pressure Humidity
    00:00 +12°C° 0 mm 1 mps 742 mmHg 87%
    01:00 +12°C° 0 mm 1 mps 742 mmHg 89%
    02:00 +12°C° 0 mm 1 mps 742 mmHg 89%
    03:00 +12°C° 0 mm 1 mps 741 mmHg 90%
    04:00 +11°C° 0 mm 1 mps 741 mmHg 91%
    05:00 +11°C° 0 mm 1 mps 741 mmHg 91%
    06:00 +12°C° 0 mm 1 mps 741 mmHg 91%
    07:00 +12°C° 0 mm 1 mps 741 mmHg 91%
    08:00 +12°C° 0.8 mm 2 mps 741 mmHg 88%
    09:00 +13°C° 0.8 mm 2 mps 741 mmHg 86%
    10:00 +13°C° 0.8 mm 3 mps 742 mmHg 84%
    11:00 +12°C° 1.8 mm 3 mps 741 mmHg 86%
    12:00 +11°C° 1.8 mm 3 mps 741 mmHg 89%
    13:00 +11°C° 1.8 mm 3 mps 741 mmHg 91%
    14:00 +10°C° 0.8 mm 2 mps 741 mmHg 92%
    15:00 +10°C° 0.8 mm 2 mps 741 mmHg 92%
    16:00 +11°C° 0.8 mm 1 mps 740 mmHg 92%
    17:00 +10°C° 0.5 mm 2 mps 740 mmHg 93%
    18:00 +10°C° 0.5 mm 2 mps 740 mmHg 93%
    19:00 +10°C° 0.5 mm 2 mps 741 mmHg 93%
    20:00 +10°C° 0.6 mm 2 mps 740 mmHg 93%
    21:00 +10°C° 0.6 mm 2 mps 740 mmHg 93%
    22:00 +9°C° 0.6 mm 2 mps 740 mmHg 93%
    23:00 +9°C° 1.6 mm 3 mps 740 mmHg 93%

    23 October, Monday

    Time Temperature Precipitation Wind Pressure Humidity
    00:00 +9°C° 1.6 mm 3 mps 740 mmHg 93%
    01:00 +8°C° 1.6 mm 4 mps 740 mmHg 93%
    02:00 +8°C° 1.2 mm 4 mps 740 mmHg 92%
    03:00 +8°C° 1.2 mm 4 mps 739 mmHg 92%
    04:00 +7°C° 1.2 mm 5 mps 739 mmHg 91%
    05:00 +7°C° 1 mm 5 mps 739 mmHg 91%
    06:00 +7°C° 1 mm 5 mps 739 mmHg 90%
    07:00 +7°C° 1 mm 5 mps 739 mmHg 90%
    08:00 +7°C° 1.2 mm 5 mps 739 mmHg 90%
    09:00 +7°C° 1.2 mm 5 mps 739 mmHg 90%
    10:00 +7°C° 1.2 mm 5 mps 739 mmHg 90%
    11:00 +7°C° 1.2 mm 5 mps 739 mmHg 89%
    12:00 +7°C° 1.2 mm 5 mps 739 mmHg 88%
    13:00 +7°C° 1.2 mm 5 mps 739 mmHg 88%
    14:00 +7°C° 1.2 mm 5 mps 739 mmHg 89%
    15:00 +7°C° 1.2 mm 5 mps 739 mmHg 89%
    16:00 +7°C° 1.2 mm 5 mps 740 mmHg 90%
    17:00 +7°C° 0.9 mm 5 mps 740 mmHg 90%
    18:00 +7°C° 0.9 mm 5 mps 740 mmHg 90%
    19:00 +7°C° 0.9 mm 5 mps 740 mmHg 91%
    20:00 +7°C° 0.9 mm 5 mps 741 mmHg 91%
    21:00 +7°C° 0.9 mm 5 mps 741 mmHg 91%
    22:00 +7°C° 0.9 mm 5 mps 741 mmHg 91%
    23:00 +7°C° 0.3 mm 5 mps 741 mmHg 92%

    24 October, Tuesday

    Time Temperature Precipitation Wind Pressure Humidity
    00:00 +7°C° 0.3 mm 4 mps 741 mmHg 92%
    01:00 +7°C° 0.3 mm 4 mps 741 mmHg 92%
    02:00 +7°C° 0.2 mm 4 mps 742 mmHg 92%
    03:00 +6°C° 0.2 mm 4 mps 742 mmHg 92%
    04:00 +6°C° 0.2 mm 4 mps 742 mmHg 92%
    05:00 +6°C° 0.1 mm 4 mps 742 mmHg 92%
    06:00 +6°C° 0.1 mm 4 mps 743 mmHg 92%
    07:00 +6°C° 0.1 mm 4 mps 743 mmHg 92%
    08:00 +7°C° 0.1 mm 4 mps 744 mmHg 90%
    09:00 +7°C° 0.1 mm 4 mps 744 mmHg 88%
    10:00 +8°C° 0.1 mm 4 mps 744 mmHg 86%
    11:00 +8°C° 0 mm 4 mps 745 mmHg 84%
    12:00 +10°C° 0 mm 4 mps 745 mmHg 82%
    13:00 +10°C° 0 mm 4 mps 745 mmHg 80%
    14:00 +10°C° 0 mm 4 mps 745 mmHg 81%
    15:00 +10°C° 0 mm 3 mps 746 mmHg 81%
    16:00 +10°C° 0 mm 3 mps 746 mmHg 82%
    17:00 +9°C° 0 mm 3 mps 746 mmHg 84%
    18:00 +9°C° 0 mm 2 mps 747 mmHg 86%
    19:00 +8°C° 0 mm 2 mps 747 mmHg 88%
    20:00 +8°C° 0 mm 2 mps 748 mmHg 89%
    21:00 +7°C° 0 mm 2 mps 748 mmHg 90%
    22:00 +8°C° 0 mm 1 mps 748 mmHg 92%
    23:00 +8°C° 0 mm 1 mps 748 mmHg 92%

    25 October, Wednesday

    Time Temperature Precipitation Wind Pressure Humidity
    00:00 +7°C° 0 mm 1 mps 749 mmHg 93%
    01:00 +7°C° 0 mm 1 mps 749 mmHg 93%
    02:00 +7°C° 0 mm 1 mps 749 mmHg 93%
    03:00 +7°C° 0 mm 1 mps 749 mmHg 93%
    04:00 +6°C° 0 mm 1 mps 749 mmHg 93%
    05:00 +6°C° 0 mm 1 mps 749 mmHg 93%
    06:00 +5°C° 0 mm 0 mps 750 mmHg 93%
    07:00 +5°C° 0 mm 0 mps 750 mmHg 93%
    08:00 +7°C° 0 mm 0 mps 750 mmHg 87%
    09:00 +9°C° 0 mm 1 mps 750 mmHg 82%
    10:00 +11°C° 0 mm 1 mps 750 mmHg 76%
    11:00 +12°C° 0 mm 1 mps 750 mmHg 72%
    12:00 +13°C° 0 mm 1 mps 750 mmHg 67%
    13:00 +13°C° 0 mm 1 mps 750 mmHg 63%
    14:00 +13°C° 0 mm 1 mps 750 mmHg 66%
    15:00 +12°C° 0 mm 1 mps 750 mmHg 69%
    16:00 +12°C° 0 mm 1 mps 749 mmHg 72%
    17:00 +11°C° 0 mm 1 mps 750 mmHg 75%
    18:00 +10°C° 0 mm 1 mps 750 mmHg 78%
    19:00 +9°C° 0 mm 1 mps 750 mmHg 80%
    20:00 +9°C° 0 mm 1 mps 750 mmHg 80%
    21:00 +9°C° 0 mm 1 mps 750 mmHg 80%
    22:00 +9°C° 0 mm 1 mps 750 mmHg 79%
    23:00 +9°C° 0 mm 1 mps 750 mmHg 78%
    Show more